Zurück zum Katalog

SL-16 DEB

AktivLEO
NORAD 54753·DEBRIS·🇷🇺 Russia

Gestartet Dec 25, 1992 von Baikonur Cosmodrome

Loading…

Nächste Überflüge (nächste 24 Stunden)

TLE

AlterndSource: Space-Track

Epoche: Sep 9, 2026, 15:02 UTC

1 54753U 92093LZ  26252.62660899  .00001372  00000-0  71076-3 0  9997
2 54753  71.0232 337.4487 0006535   1.2202 358.8937 14.16642338 38768

Verfolge SL-16 DEB in Echtzeit mit AllMySat

Download on the App Store